Russellville, AR

7:24 PM CDT on October 20, 2017 (GMT -0500)
Russellville Regional

Weather History for KRUE - February, 2014

Change the Weather History Date:

Friday, February 7, 2014

  Actual Average (KHOT) Record (KHOT)
Temperature  
Mean Temperature 22 °F -  
Max Temperature 24 °F 51 °F 79 °F (2017)
Min Temperature 19 °F 28 °F 13 °F (1988)
Degree Days  
Heating Degree Days 44    
Moisture  
Dew Point 16 °F    
Average Humidity 79    
Maximum Humidity 93    
Minimum Humidity 63    
Precipitation  
Precipitation 0.00 in - - ()
Sea Level Pressure  
Sea Level Pressure 30.37 in    
Wind  
Wind Speed 3 mph (East)    
Max Wind Speed 7 mph    
Max Gust Speed -    
Visibility 6 miles    
Events Snow    
Averages and records for this station are not official NWS values.
T = Trace of Precipitation, MM = Missing Value Source: NWS Daily Summary

Daily Weather History Graph

Daily Weather History Graph

Search for Another Location

Airport or City:

Trip Planner

Search our weather history database for the weather conditions in past years. The results will help you decide how hot, cold, wet, or windy it might be!

Date:

Astronomy

Feb. 07, 2014 Rise Set
Actual Time 7:06 AM CST 5:46 PM CST
Civil Twilight 6:40 AM CST 6:13 PM CST
Nautical Twilight 6:10 AM CST 6:43 PM CST
Astronomical Twilight 5:40 AM CST 7:13 PM CST
Moon 12:00 PM CST (2/7) 1:21 AM CST (2/7)
Length of Visible Light 11h 33m
Length of Day
10h 40m
First Quarter, 59% of the Moon is Illuminated
Feb 7
First Quarter
Feb 14
Full
Feb 22
Last Quarter
Mar 1
New
Mar 8
First Quarter

Hourly Weather History & Observations

Time (CST) Temp. Windchill Dew Point Humidity Pressure Visibility Wind Dir Wind Speed Gust Speed Precip Events Conditions
12:53 AM 21.0 °F - 12.0 °F 68% 30.46 in 10.0 mi Calm Calm - N/A   Overcast
1:53 AM 19.9 °F - 12.9 °F 74% 30.45 in 10.0 mi Calm Calm - N/A   Overcast
2:02 AM 21.2 °F - 14.0 °F 74% 30.44 in 10.0 mi Calm Calm - N/A   Overcast
2:53 AM 21.0 °F 13.4 °F 10.9 °F 65% 30.44 in 10.0 mi NE 5.8 mph - N/A   Overcast
3:53 AM 21.0 °F 13.4 °F 10.0 °F 63% 30.42 in 10.0 mi ENE 5.8 mph - N/A   Overcast
4:53 AM 21.0 °F 16.2 °F 10.9 °F 65% 30.44 in 10.0 mi East 3.5 mph - N/A   Overcast
5:53 AM 19.9 °F - 10.9 °F 68% 30.45 in 10.0 mi Calm Calm - N/A   Overcast
6:53 AM 19.9 °F 13.4 °F 12.0 °F 71% 30.45 in 10.0 mi ENE 4.6 mph - N/A   Overcast
7:53 AM 19.9 °F 12.1 °F 10.9 °F 68% 30.47 in 10.0 mi ENE 5.8 mph - N/A   Overcast
8:53 AM 19.9 °F 11.1 °F 12.9 °F 74% 30.46 in 10.0 mi ENE 6.9 mph - N/A   Overcast
9:53 AM 21.0 °F 14.6 °F 14.0 °F 74% 30.47 in 10.0 mi East 4.6 mph - N/A   Overcast
10:33 AM 21.2 °F 12.6 °F 15.8 °F 80% 30.45 in 10.0 mi ENE 6.9 mph - N/A   Overcast
10:44 AM 21.2 °F 13.6 °F 15.8 °F 80% 30.44 in 10.0 mi East 5.8 mph - N/A   Overcast
10:53 AM 21.9 °F 14.5 °F 15.1 °F 75% 30.45 in 10.0 mi East 5.8 mph - N/A   Overcast
11:08 AM 23.0 °F 15.8 °F 15.8 °F 74% 30.44 in 10.0 mi ENE 5.8 mph - N/A   Overcast
11:53 AM 23.0 °F 17.0 °F 16.0 °F 74% 30.44 in 10.0 mi ESE 4.6 mph - N/A   Overcast
12:53 PM 23.0 °F 18.4 °F 16.0 °F 74% 30.39 in 10.0 mi Variable 3.5 mph - N/A   Overcast
1:53 PM 24.1 °F 18.2 °F 16.0 °F 71% 30.35 in 10.0 mi Variable 4.6 mph - N/A   Overcast
2:09 PM 24.8 °F 19.1 °F 17.6 °F 74% 30.34 in 10.0 mi Variable 4.6 mph - N/A   Overcast
2:38 PM 24.8 °F 17.9 °F 17.6 °F 74% 30.33 in 10.0 mi East 5.8 mph - N/A   Overcast
2:53 PM 24.1 °F 18.2 °F 16.0 °F 71% 30.34 in 10.0 mi ESE 4.6 mph - N/A   Overcast
3:08 PM 24.8 °F 19.1 °F 17.6 °F 74% 30.33 in 10.0 mi East 4.6 mph - N/A   Overcast
3:53 PM 24.1 °F 19.7 °F 17.1 °F 75% 30.33 in 10.0 mi Variable 3.5 mph - N/A   Overcast
4:53 PM 24.1 °F 19.7 °F 17.1 °F 75% 30.34 in 10.0 mi Variable 3.5 mph - N/A   Overcast
5:51 PM 24.8 °F 19.1 °F 17.6 °F 74% 30.34 in 2.5 mi East 4.6 mph - 0.00 in Snow Light Snow
5:53 PM 24.1 °F 18.2 °F 18.0 °F 77% 30.35 in 2.5 mi East 4.6 mph - 0.00 in Snow Light Snow
6:12 PM 23.0 °F 17.0 °F 17.6 °F 80% 30.34 in 3.0 mi East 4.6 mph - 0.00 in Snow Light Snow
6:45 PM 23.0 °F 18.4 °F 19.4 °F 86% 30.34 in 2.0 mi East 3.5 mph - 0.00 in Snow Light Snow
6:53 PM 23.0 °F 18.4 °F 19.0 °F 85% 30.35 in 2.0 mi East 3.5 mph - 0.00 in Snow Light Snow
7:09 PM 23.0 °F - 19.4 °F 86% 30.34 in 2.5 mi Calm Calm - 0.00 in Snow Light Snow
7:19 PM 23.0 °F 18.4 °F 19.4 °F 86% 30.34 in 1.8 mi ESE 3.5 mph - 0.00 in Snow Light Snow
7:53 PM 23.0 °F 17.0 °F 19.0 °F 85% 30.34 in 2.5 mi East 4.6 mph - 0.00 in Snow Light Snow
8:00 PM 23.0 °F - 19.4 °F 86% 30.33 in 2.5 mi Calm Calm - 0.00 in Snow Light Snow
8:16 PM 23.0 °F 18.4 °F 19.4 °F 86% 30.32 in 1.8 mi East 3.5 mph - 0.00 in Snow Light Snow
8:37 PM 23.0 °F 17.0 °F 19.4 °F 86% 30.32 in 1.0 mi Variable 4.6 mph - 0.00 in Snow Light Snow
8:51 PM 21.2 °F 16.4 °F 19.4 °F 93% 30.32 in 1.2 mi Variable 3.5 mph - 0.00 in Snow Light Snow
8:53 PM 21.9 °F 14.5 °F 19.0 °F 89% 30.32 in 1.2 mi East 5.8 mph - 0.00 in Snow Light Snow
9:16 PM 21.2 °F 16.4 °F 19.4 °F 93% 30.31 in 3.0 mi Variable 3.5 mph - 0.00 in Snow Light Snow
9:25 PM 21.2 °F 16.4 °F 17.6 °F 86% 30.31 in 3.0 mi Variable 3.5 mph - 0.00 in Snow Light Snow
9:35 PM 21.2 °F 16.4 °F 17.6 °F 86% 30.30 in 2.0 mi Variable 3.5 mph - 0.00 in Snow Light Snow
9:39 PM 21.2 °F - 17.6 °F 86% 30.31 in 1.8 mi Calm Calm - 0.00 in Snow Light Snow
9:53 PM 21.9 °F 15.7 °F 18.0 °F 85% 30.32 in 2.0 mi Variable 4.6 mph - 0.00 in Snow Light Snow
10:07 PM 21.2 °F 16.4 °F 17.6 °F 86% 30.31 in 4.0 mi ESE 3.5 mph - 0.00 in Snow Light Snow
10:25 PM 21.2 °F 16.4 °F 17.6 °F 86% 30.32 in 2.0 mi East 3.5 mph - 0.00 in Snow Light Snow
10:32 PM 21.2 °F 14.9 °F 17.6 °F 86% 30.31 in 1.8 mi East 4.6 mph - 0.00 in Snow Light Snow
10:44 PM 21.2 °F - 17.6 °F 86% 30.31 in 1.5 mi Calm Calm - 0.00 in Snow Light Snow
10:53 PM 21.9 °F - 18.0 °F 85% 30.32 in 1.0 mi Calm Calm - 0.00 in Snow Light Snow
11:32 PM 21.2 °F - 17.6 °F 86% 30.30 in 2.5 mi Calm Calm - 0.00 in Snow Light Snow
11:42 PM 21.2 °F - 17.6 °F 86% 30.29 in 3.0 mi Calm Calm - 0.00 in Snow Light Snow
11:53 PM 21.9 °F 17.2 °F 18.0 °F 85% 30.30 in 3.0 mi Variable 3.5 mph - 0.00 in Snow Light Snow